SWR4ET LSZH-EDDF

Flight info

Callsign SWR4ET
Flight time N/A
Altitude 20000
Route DEGES3S DEGES Z1 SUDEN T164 KOVAN T163 SPESA SPESA5C
Aircraft A321/M-SDE3FGHIRWY/LB1

Departure

Time 2026-04-30 18:00
Airport Zürich Airport (LSZH)

Arrival

Time N/A
Airport Frankfurt Main Airport (EDDF)
Time Latitude Longitude Altitude Speed Heading
2026-04-30 17:46 47.45435 8.55748 1414 ft 0 kts 185°
2026-04-30 17:49 47.45495 8.55772 1411 ft 3 kts 224°
2026-04-30 17:50 47.45500 8.55876 1410 ft 3 kts 277°
2026-04-30 17:51 47.45498 8.55896 1410 ft 0 kts 276°
2026-04-30 17:53 47.45512 8.55741 1408 ft 4 kts 277°
2026-04-30 17:54 47.45533 8.55399 1410 ft 10 kts 276°
2026-04-30 17:55 47.45728 8.55153 1395 ft 18 kts 338°
2026-04-30 17:56 47.45934 8.54712 1387 ft 22 kts 274°
2026-04-30 17:57 47.45968 8.54173 1399 ft 10 kts 279°
2026-04-30 17:58 47.45993 8.53851 1399 ft 0 kts 263°
2026-04-30 17:59 47.45895 8.53806 1403 ft 16 kts 128°
2026-04-30 18:00 47.45586 8.58061 1875 ft 165 kts 94°
2026-04-30 18:00 47.45233 8.63398 3259 ft 195 kts 90°
2026-04-30 18:01 47.45542 8.67835 3847 ft 237 kts 80°
2026-04-30 18:02 47.46372 8.75458 5996 ft 259 kts 82°
2026-04-30 18:02 47.46594 8.83648 8081 ft 274 kts 103°
2026-04-30 18:03 47.45288 8.92030 10216 ft 288 kts 101°
2026-04-30 18:04 47.43908 9.01748 10639 ft 353 kts 101°
2026-04-30 18:05 47.42059 9.17029 12048 ft 387 kts 89°
2026-04-30 18:06 47.45782 9.31807 14019 ft 392 kts 59°
2026-04-30 18:07 47.53682 9.42643 15598 ft 402 kts 22°
2026-04-30 18:08 47.61930 9.45333 16841 ft 411 kts
2026-04-30 18:09 47.73539 9.45927 18597 ft 420 kts
2026-04-30 18:10 47.85325 9.46401 19987 ft 426 kts
2026-04-30 18:11 47.97355 9.46228 20044 ft 434 kts
2026-04-30 18:11 48.06411 9.46212 20055 ft 433 kts
2026-04-30 18:12 48.15496 9.46201 20064 ft 433 kts
2026-04-30 18:13 48.21533 9.46188 20067 ft 434 kts
2026-04-30 18:13 48.29566 9.46192 20045 ft 434 kts
2026-04-30 18:14 48.36685 9.46211 20045 ft 436 kts
2026-04-30 18:15 48.45793 9.46161 20056 ft 438 kts 359°
2026-04-30 18:15 48.54310 9.41132 20062 ft 452 kts 324°
2026-04-30 18:16 48.58381 9.33830 20059 ft 460 kts 306°
2026-04-30 18:16 48.62561 9.26676 20058 ft 452 kts 324°
2026-04-30 18:17 48.65135 9.23971 20054 ft 448 kts 333°
2026-04-30 18:17 48.67915 9.21915 20055 ft 445 kts 340°
2026-04-30 18:17 48.72678 9.18795 20053 ft 445 kts 340°
2026-04-30 18:18 48.75522 9.16915 20040 ft 446 kts 339°
2026-04-30 18:18 48.78366 9.15026 20038 ft 446 kts 339°
2026-04-30 18:18 48.81208 9.13131 20043 ft 447 kts 339°
2026-04-30 18:18 48.84060 9.11233 20040 ft 447 kts 340°
2026-04-30 18:19 48.86999 9.09783 20040 ft 443 kts 349°
2026-04-30 18:19 48.90032 9.09072 20043 ft 440 kts 359°
2026-04-30 18:19 48.93088 9.09109 20045 ft 437 kts
2026-04-30 18:19 48.96112 9.09558 20045 ft 437 kts
2026-04-30 18:20 48.99139 9.10003 20052 ft 437 kts
2026-04-30 18:20 49.02163 9.10435 20054 ft 437 kts
2026-04-30 18:20 49.05250 9.10866 20056 ft 437 kts
2026-04-30 18:20 49.08241 9.11284 20060 ft 437 kts
2026-04-30 18:21 49.11274 9.11715 20060 ft 437 kts
2026-04-30 18:21 49.14347 9.12154 20060 ft 438 kts
2026-04-30 18:21 49.17382 9.12591 20067 ft 438 kts
2026-04-30 18:21 49.20404 9.13024 20074 ft 438 kts
2026-04-30 18:22 49.23445 9.13458 20076 ft 438 kts
2026-04-30 18:22 49.29503 9.14322 20084 ft 438 kts
2026-04-30 18:22 49.32525 9.14751 20085 ft 432 kts
2026-04-30 18:23 49.35543 9.15176 20089 ft 429 kts
2026-04-30 18:23 49.38513 9.15597 20084 ft 428 kts
2026-04-30 18:23 49.41480 9.16021 20092 ft 428 kts
2026-04-30 18:23 49.44441 9.16449 20102 ft 428 kts
2026-04-30 18:24 49.50374 9.17307 20096 ft 428 kts
2026-04-30 18:24 49.53334 9.17734 20106 ft 428 kts
2026-04-30 18:24 49.56295 9.18160 20104 ft 428 kts
2026-04-30 18:25 49.59259 9.18584 20101 ft 428 kts
2026-04-30 18:25 49.64983 9.20442 20098 ft 422 kts 25°
2026-04-30 18:25 49.67532 9.22638 20104 ft 419 kts 37°
2026-04-30 18:26 49.71868 9.28680 20116 ft 419 kts 37°
2026-04-30 18:26 49.74429 9.30844 20113 ft 422 kts 22°
2026-04-30 18:26 49.77273 9.31981 20112 ft 425 kts 13°
2026-04-30 18:27 49.83075 9.33784 20107 ft 425 kts 14°
2026-04-30 18:27 49.85965 9.34714 20120 ft 425 kts 14°
2026-04-30 18:28 49.91781 9.36575 20129 ft 430 kts 14°
2026-04-30 18:28 49.94720 9.37515 20130 ft 433 kts 14°
2026-04-30 18:28 50.00738 9.39439 20137 ft 434 kts 14°